Weather History for Shawano, WI

Change the Weather History Date:

Sunday, May 19, 2013

  Actual Average (KGRB) Record (KGRB)
Temperature  
Mean Temperature 68 °F 56 °F  
Max Temperature 82 °F 67 °F 89 °F (2012)
Min Temperature 55 °F 45 °F 31 °F (2002)
Degree Days  
Heating Degree Days 0 10  
Month to date heating degree days 232  
Since 1 July heating degree days 7769  
Cooling Degree Days 4 1  
Month to date cooling degree days 2  
Year to date cooling degree days 4  
Growing Degree Days 18 (Base 50)    
Moisture  
Dew Point 59 °F    
Average Humidity 70    
Maximum Humidity 94    
Minimum Humidity 42    
Precipitation  
Precipitation 0.00 in 0.10 in 1.98 in (1918)
Month to date precipitation 1.64  
Year to date precipitation 8.36  
Snow  
Snow 0.00 in 0.00 in T in (1924)
Month to date snowfall 0.2  
Since 1 July snowfall 51.4  
Snow Depth -    
Sea Level Pressure  
Sea Level Pressure 29.87 in    
Wind  
Wind Speed 4 mph (SE)    
Max Wind Speed 14 mph    
Max Gust Speed 22 mph    
Visibility 8 miles    
Events Fog    
T = Trace of Precipitation, MM = Missing Value Source: NWS Daily Summary

Daily Weather History Graph

Daily Weather History Graph

Search for Another Location

Airport:

Trip Planner

Search our weather history database for the weather conditions in past years. The results will help you decide how hot, cold, wet, or windy it might be!

Date:

Astronomy

May. 19, 2013 Rise Set
Actual Time 5:21 AM CDT 8:20 PM CDT
Civil Twilight 4:46 AM CDT 8:55 PM CDT
Nautical Twilight 4:02 AM CDT 9:39 PM CDT
Astronomical Twilight 3:10 AM CDT 10:32 PM CDT
Moon 2:10 PM CDT (5/19) 2:00 AM CDT (5/19)
Length of Visible Light 16h 08m
Length of Day
14h 59m
Waxing Gibbous, 65% of the Moon is Illuminated
May 19
Waxing Gibbous
May 24
Full
May 31
Last Quarter
Jun 8
New
Jun 16
First Quarter

Hourly Weather History & Observations

Time (CDT) Temp. Heat Index Dew Point Humidity Pressure Visibility Wind Dir Wind Speed Gust Speed Precip Events Conditions
12:35 AM 59.0 °F - 57.2 °F 94% 29.95 in 2.5 mi Calm Calm - N/A   Clear
12:55 AM 59.0 °F - 55.4 °F 88% 29.95 in 0.2 mi Calm Calm - N/A Fog Fog
1:15 AM 59.0 °F - 55.4 °F 88% 29.94 in 1.0 mi Calm Calm - N/A   Scattered Clouds
1:35 AM 59.0 °F - 57.2 °F 94% 29.94 in 3.0 mi NE 3.5 mph - N/A   Clear
1:55 AM 59.0 °F - 57.2 °F 94% 29.95 in 3.0 mi Calm Calm - N/A   Clear
2:15 AM 59.0 °F - 57.2 °F 94% 29.95 in 3.0 mi Calm Calm - N/A   Clear
2:35 AM 57.2 °F - 55.4 °F 94% 29.94 in 3.0 mi East 4.6 mph - N/A   Clear
2:55 AM 57.2 °F - 55.4 °F 94% 29.92 in 2.0 mi East 3.5 mph - N/A   Clear
3:35 AM 55.4 °F - 53.6 °F 94% 29.94 in 2.5 mi Calm Calm - N/A   Clear
3:55 AM 55.4 °F - 53.6 °F 94% 29.94 in 2.5 mi ENE 3.5 mph - N/A   Clear
4:15 AM 55.4 °F - 53.6 °F 94% 29.95 in 4.0 mi NNE 3.5 mph - N/A   Clear
4:35 AM 55.4 °F - 53.6 °F 94% 29.96 in 4.0 mi Calm Calm - N/A   Clear
4:55 AM 55.4 °F - 53.6 °F 94% 29.97 in 5.0 mi Calm Calm - N/A   Clear
5:15 AM 55.4 °F - 53.6 °F 94% 29.96 in 4.0 mi East 3.5 mph - N/A   Clear
5:35 AM 55.4 °F - 53.6 °F 94% 29.96 in 4.0 mi ENE 3.5 mph - N/A   Clear
5:55 AM 55.4 °F - 53.6 °F 94% 29.96 in 4.0 mi East 4.6 mph - N/A   Clear
6:15 AM 55.4 °F - 53.6 °F 94% 29.95 in 5.0 mi East 3.5 mph - N/A   Clear
6:35 AM 55.4 °F - 53.6 °F 94% 29.95 in 5.0 mi Calm Calm - N/A   Clear
6:55 AM 55.4 °F - 53.6 °F 94% 29.96 in 5.0 mi Calm Calm - N/A   Clear
7:15 AM 57.2 °F - 53.6 °F 88% 29.96 in 5.0 mi Calm Calm - N/A   Clear
7:35 AM 60.8 °F - 55.4 °F 82% 29.95 in 5.0 mi Calm Calm - N/A   Haze
7:55 AM 60.8 °F - 55.4 °F 82% 29.95 in 7.0 mi NE 3.5 mph - N/A   Clear
8:15 AM 60.8 °F - 55.4 °F 82% 29.95 in 7.0 mi Calm Calm - N/A   Clear
8:35 AM 64.4 °F - 59.0 °F 83% 29.95 in 7.0 mi Calm Calm - N/A   Clear
8:55 AM 68.0 °F - 59.0 °F 73% 29.94 in 10.0 mi SSW 4.6 mph - N/A   Clear
9:15 AM 69.8 °F - 59.0 °F 68% 29.94 in 10.0 mi South 3.5 mph - N/A   Clear
9:35 AM 71.6 °F - 60.8 °F 69% 29.94 in 10.0 mi South 4.6 mph - N/A   Clear
9:55 AM 71.6 °F - 60.8 °F 69% 29.93 in 10.0 mi South 4.6 mph - N/A   Clear
10:15 AM 75.2 °F - 60.8 °F 61% 29.92 in 10.0 mi SSE 5.8 mph - N/A   Clear
10:35 AM 75.2 °F - 60.8 °F 61% 29.91 in 10.0 mi South 4.6 mph - N/A   Clear
10:55 AM 77.0 °F - 60.8 °F 57% 29.91 in 10.0 mi South 6.9 mph - N/A   Clear
11:15 AM 77.0 °F - 60.8 °F 57% 29.90 in 10.0 mi South 5.8 mph - N/A   Clear
11:35 AM 77.0 °F - 62.6 °F 61% 29.89 in 10.0 mi South 4.6 mph - N/A   Clear
11:55 AM 77.0 °F - 60.8 °F 57% 29.86 in 10.0 mi SSE 9.2 mph - N/A   Clear
12:15 PM 78.8 °F - 62.6 °F 57% 29.86 in 10.0 mi SE 8.1 mph - N/A   Clear
12:35 PM 78.8 °F - 62.6 °F 57% 29.85 in 10.0 mi SE 11.5 mph - N/A   Clear
12:55 PM 78.8 °F - 62.6 °F 57% 29.84 in 10.0 mi SSE 12.7 mph 17.3 mph N/A   Clear
1:15 PM 80.6 °F 81.8 °F 62.6 °F 54% 29.83 in 10.0 mi SE 10.4 mph - N/A   Clear
1:35 PM 80.6 °F 81.5 °F 60.8 °F 51% 29.79 in 10.0 mi ESE 12.7 mph 20.7 mph N/A   Clear
1:55 PM 80.6 °F 81.5 °F 60.8 °F 51% 29.79 in 10.0 mi SE 12.7 mph 20.7 mph N/A   Clear
2:15 PM 82.4 °F 82.9 °F 60.8 °F 48% 29.81 in 10.0 mi SE 10.4 mph 16.1 mph N/A   Scattered Clouds
2:35 PM 82.4 °F 82.9 °F 60.8 °F 48% 29.82 in 10.0 mi SE 12.7 mph - N/A   Scattered Clouds
2:55 PM 80.6 °F 81.5 °F 60.8 °F 51% 29.83 in 10.0 mi SE 11.5 mph 16.1 mph N/A   Mostly Cloudy
3:15 PM 80.6 °F 81.5 °F 60.8 °F 51% 29.84 in 10.0 mi SSE 11.5 mph 20.7 mph N/A   Scattered Clouds
3:35 PM 82.4 °F 82.9 °F 60.8 °F 48% 29.84 in 10.0 mi SSE 11.5 mph 17.3 mph N/A   Mostly Cloudy
3:55 PM 82.4 °F 82.9 °F 60.8 °F 48% 29.83 in 10.0 mi SSE 13.8 mph 18.4 mph N/A   Scattered Clouds
4:15 PM 82.4 °F 82.0 °F 57.2 °F 42% 29.83 in 10.0 mi SSE 10.4 mph - N/A   Clear
4:35 PM 82.4 °F 82.5 °F 59.0 °F 45% 29.82 in 10.0 mi SE 11.5 mph 21.9 mph N/A   Clear
4:55 PM 82.4 °F 82.9 °F 60.8 °F 48% 29.82 in 10.0 mi SE 10.4 mph 19.6 mph N/A   Clear
5:15 PM 82.4 °F 82.9 °F 60.8 °F 48% 29.80 in 10.0 mi SSE 10.4 mph - N/A   Clear
5:35 PM 82.4 °F 82.9 °F 60.8 °F 48% 29.79 in 10.0 mi SSE 9.2 mph 17.3 mph N/A   Clear
5:55 PM 82.4 °F 82.9 °F 60.8 °F 48% 29.78 in 10.0 mi SSE 9.2 mph - N/A   Clear
6:15 PM 80.6 °F 81.5 °F 60.8 °F 51% 29.77 in 10.0 mi SE 12.7 mph - N/A   Clear
6:35 PM 80.6 °F 81.8 °F 62.6 °F 54% 29.75 in 10.0 mi ESE 10.4 mph - N/A   Clear
6:55 PM 78.8 °F - 60.8 °F 54% 29.76 in 10.0 mi ESE 8.1 mph - N/A   Clear
7:15 PM 78.8 °F - 60.8 °F 54% 29.76 in 10.0 mi ESE 9.2 mph - N/A   Clear
7:35 PM 77.0 °F - 62.6 °F 61% 29.76 in 10.0 mi ESE 9.2 mph - N/A   Clear
7:55 PM 73.4 °F - 60.8 °F 65% 29.77 in 10.0 mi ESE 8.1 mph - N/A   Clear
8:15 PM 73.4 °F - 60.8 °F 65% 29.77 in 10.0 mi ESE 8.1 mph - N/A   Clear
8:35 PM 71.6 °F - 60.8 °F 69% 29.79 in 10.0 mi ESE 9.2 mph - N/A   Clear
8:55 PM 69.8 °F - 60.8 °F 73% 29.79 in 10.0 mi ESE 4.6 mph - N/A   Clear
9:35 PM 69.8 °F - 59.0 °F 68% 29.79 in 10.0 mi SE 5.8 mph - N/A   Clear
9:55 PM 69.8 °F - 59.0 °F 68% 29.77 in 10.0 mi ESE 5.8 mph - N/A   Clear
10:15 PM 68.0 °F - 59.0 °F 73% 29.77 in 10.0 mi ESE 5.8 mph - N/A   Clear
10:35 PM 68.0 °F - 59.0 °F 73% 29.76 in 10.0 mi East 5.8 mph - N/A   Clear
10:55 PM 68.0 °F - 59.0 °F 73% 29.76 in 10.0 mi ESE 5.8 mph - N/A   Clear
11:15 PM 68.0 °F - 60.8 °F 78% 29.76 in 10.0 mi ESE 5.8 mph - N/A   Clear
11:35 PM 69.8 °F - 60.8 °F 73% 29.76 in 10.0 mi ESE 10.4 mph - N/A   Scattered Clouds
11:55 PM 68.0 °F - 59.0 °F 73% 29.76 in 10.0 mi ESE 8.1 mph - N/A   Mostly Cloudy